Location: Haulchin
(50.3172°N, 3.4360°E)
Time: 19:14:21
(UTC+00:00)

Cosmos 2082 Rocket - Pass Details

Date: 23 May 2024
Orbit: 832 x 853 km, 71.0° (Epoch: 16 June)

Event Time Altitude Azimuth Distance (km) Brightness Sun altitude
Exits shadow 01:48:49 14° 243° (WSW) 2,195 3.9 -13.8°
Maximum altitude 01:53:21 42° 310° (NW) 1,214 3.1 -13.4°
Drops below altitude 10° 01:58:46 10° 20° (NNE) 2,493 6.0 -13.0°
Sets 02:01:23 0° 28° (NNE) 3,430 7.4 -12.7°
